Regional Weather Roundup
Issued by NWS

Home | Current Version | Previous Version | Text Only | Print | Product List | Glossary On
Versions: 1 2 3 4 5 6 7 8 9 10 11 12 13 14 15 16 17 18 19 20 21 22 23 24 25 26 27 28 29 30 31 32 33 34 35 36 37 38 39 40 41 42 43 44 45 46 47 48 49 50
000
ASUS43 KDTX 271401
RWRMI
MICHIGAN HOURLY REGIONAL WEATHER ROUNDUP
NATIONAL WEATHER SERVICE DETROIT/PONTIAC MI
1000 AM EDT TUE SEP 27 2016

NOTE: "FAIR" INDICATES FEW OR NO CLOUDS BELOW 12,000 FEET WITH NO
SIGNIFICANT WEATHER AND/OR OBSTRUCTION TO VISIBILITY.

MIZ047>049-052>055-059>063-066>070-074>076-081>083-271500-
SOUTHEAST LOWER MICHIGAN

CITY           SKY/WX    TMP DP  RH WIND       PRES   REMARKS
ADRIAN         SUNNY     54  45  71 SW9       29.83F
ALMA           MOSUNNY   57  49  75 SW14      29.71S
ANN ARBOR      SUNNY     56  43  61 S10       29.79F
BAD AXE        MOSUNNY   56  45  65 SW8G17    29.71F
CARO           MOSUNNY   57  46  67 SW8       29.71S
DETROIT CITY   SUNNY     59  42  53 SW13      29.80S
DETROIT        MOSUNNY   58  43  57 SW16      29.80F
FLINT          MOSUNNY   58  44  60 SW13      29.74S
GROSSE ILE     SUNNY     58  43  56 SW10      29.80S
HILLSDALE      SUNNY     55  41  58 SW7       29.81S
HOWELL         SUNNY     58  44  59 SW12G20   29.76F

CITY           SKY/WX    TMP DP  RH WIND       PRES   REMARKS
JACKSON        SUNNY     58  44  60 SW14G22   29.78F
LAMBERTVILLE   SUNNY     59  43  55 W8        29.83F
LANSING        SUNNY     58  43  57 SW14G23   29.74F
LAPEER         FAIR      58  43  57 SW9G17    29.75S
MASON          SUNNY     57  44  60 SW12G17   29.76F
MONROE         SUNNY     58  44  57 SW10G18   29.81F
MT. CLEMENS    MOSUNNY   61  41  49 SW12      29.75F
PONTIAC        MOSUNNY   57  42  57 SW9       29.76F
PORT HURON     SUNNY     59  45  58 SW7       29.76F
TRI CITIES     MOSUNNY   57  46  66 SW14      29.71S
MIDLAND        FAIR      55  45  71 SW8       29.69S
TROY           SUNNY     57  38  49 SW10G17   29.79F
SAGINAW HB     MOSUNNY   55  45  67 S12G17    29.71S
$$
MIZ043>046-050>051-056>058-064>065-071>073-077>080-271500-
SOUTHWEST LOWER MICHIGAN

CITY           SKY/WX    TMP DP  RH WIND       PRES   REMARKS
BATTLE CREEK   SUNNY     59  47  64 W14       29.77F
BENTON HARBOR  SUNNY     63  40  42 W18G30    29.79S
BIG RAPIDS     CLOUDY    56  47  73 SW8       29.67S
COLDWATER      SUNNY     56  41  55 SW12      29.81S
FREMONT        PTSUNNY   58  41  54 W16       29.69S
HOLLAND        MOSUNNY   62  44  51 W18G29    29.75R
GRAND RAPIDS   PTSUNNY   60  47  61 SW14      29.73S
IONIA          FAIR      58  46  63 SW15      29.72S
KALAMAZOO      SUNNY     60  45  57 SW14G24   29.78F
LUDINGTON      CLOUDY    57  48  71 W8G21     29.66R
MARSHALL       SUNNY     58  44  60 SW14      29.78S
MOUNT PLEASANT PTSUNNY   56  45  68 SW9       29.68S
MUSKEGON       PTSUNNY   59  44  57 W16G26    29.71S
SOUTH HAVEN    MOSUNNY   63  44  50 W15G25    29.77S
$$
MIZ016>042-271500-
NORTHERN LOWER MICHIGAN

CITY           SKY/WX    TMP DP  RH WIND       PRES   REMARKS
ALPENA         CLOUDY    56  44  64 SW12      29.62R
BEAVER ISLAND  CLOUDY    56  49  78 W21G26    29.54R
BELLAIRE       LGT RAIN  54  50  87 W5        29.60S
CADILLAC       CLOUDY    53  46  78 SW10      29.64R
CHARLEVOIX     LGT RAIN  55  50  84 W17G23    29.59R
FRANKFORT      CLOUDY    58  46  65 W14G30    29.61F
GAYLORD        LGT RAIN  52  46  80 SW14      29.60R
GRAYLING       CLOUDY    54  47  78 SW8       29.63S
HARBOR SPRINGS LGT RAIN  55  51  89 W7G17     29.56R
HOUGHTON LAKE  CLOUDY    53  44  71 SW12G18   29.65S
MANISTEE       CLOUDY    58  46  64 W18G24    29.63S
OSCODA         CLOUDY    55  45  68 SW14      29.65S
PELLSTON       LGT RAIN  54  50  86 SW5       29.55S
ROGERS CITY    CLOUDY    56  47  72 SW8       29.59S
TRAVERSE CITY  LGT RAIN  56  48  74 W15G24    29.60R
$$
MIZ007>008-015-271500-
EASTERN UPPER MICHIGAN

CITY           SKY/WX    TMP DP  RH WIND       PRES   REMARKS
KINROSS        CLOUDY    54  47  77 SW7       29.52
MACKINAC ISLAN CLOUDY    55  50  81 W15G21    29.52S
NEWBERRY       CLOUDY    52  48  87 SW9G17    29.50S
S. S. MARIE    CLOUDY    56  49  77 SW8       29.51S
MUNISING         N/A     53  49  86 VRB6      29.49S
$$
MIZ004>006-011>014-085-271500-
CENTRAL UPPER MICHIGAN

CITY           SKY/WX    TMP DP  RH WIND       PRES   REMARKS
MANISTIQUE     CLOUDY    55  46  73 W7        29.52S
ESCANABA       CLOUDY    53  49  86 W10       29.55S
MENOMINEE      CLOUDY    54  45  71 W8        29.59F
SAWYER-GWINN   CLOUDY    48  46  93 W10       29.52R
$$
MIZ001>003-009>011-084-271500-
WESTERN UPPER MICHIGAN

CITY           SKY/WX    TMP DP  RH WIND       PRES   REMARKS
IRON MOUNTAIN  PTSUNNY   52  45  77 W15G22    29.55R
HOUGHTON       LGT RAIN  49  45  86 NW16G25   29.50R
COPPER HARBOR    N/A     52  50  93 N22       29.46R
IRONWOOD       RAIN      48  47  96 W13       29.62R
$$

ABBREVIATIONS USED IN REMARKS
   TC - TEMPERATURE IN CELSIUS
  WCI - WIND CHILL INDEX
   HX - HEAT INDEX
  VSB - VISIBILITY





USA.gov is the U.S. government's official web portal to all federal, state and local government web resources and services.